H1 CPF 2 NER 2025 7 28 9 209 01 glonass132 H2 1401201 9132 39620 2025 7 28 0 0 0 2025 7 31 23 45 0 900 1 1 0 0 0 1 H9 10 0 60884 0.00000 0 14568771.482 -4792602.355 -20357484.697 10 0 60884 900.00000 0 16903484.558 -4181762.172 -18610743.190 10 0 60884 1800.00000 0 19046493.979 -3801674.419 -16501634.534 10 0 60884 2700.00000 0 20936387.323 -3628866.187 -14071170.279 10 0 60884 3600.00000 0 22519395.881 -3629149.895 -11366649.039 10 0 60884 4500.00000 0 23751520.765 -3759285.833 -8440731.356 10 0 60884 5400.00000 0 24600264.707 -3969037.138 -5350406.793 10 0 60884 6300.00000 0 25045896.157 -4203528.908 -2155873.978 10 0 60884 7200.00000 0 25082192.347 -4405810.065 1080643.497 10 0 60884 8100.00000 0 24716630.272 -4519507.775 4296120.995 10 0 60884 9000.00000 0 23970018.119 -4491460.308 7427971.373 10 0 60884 9900.00000 0 22875583.637 -4274215.296 10415272.643 10 0 60884 10800.00000 0 21477559.056 -3828286.289 13199959.748 10 0 60884 11700.00000 0 19829323.550 -3124071.190 15727956.463 10 0 60884 12600.00000 0 17991182.766 -2143350.914 17950225.006 10 0 60884 13500.00000 0 16027879.892 -880304.772 19823713.025 10 0 60884 14400.00000 0 14005943.478 658000.217 21312180.185 10 0 60884 15300.00000 0 11990983.533 2451666.492 22386889.181 10 0 60884 16200.00000 0 10045048.744 4468567.068 23027149.086 10 0 60884 17100.00000 0 8224154.502 6665465.374 23220701.843 10 0 60884 18000.00000 0 6576083.646 8989607.136 22963945.839 10 0 60884 18900.00000 0 5138549.966 11380718.318 22261993.464 10 0 60884 19800.00000 0 3937799.094 13773326.546 21128562.536 10 0 60884 20700.00000 0 2987703.134 16099310.318 19585704.339 10 0 60884 21600.00000 0 2289384.806 18290571.083 17663373.826 10 0 60884 22500.00000 0 1831385.044 20281718.313 15398850.171 10 0 60884 23400.00000 0 1590365.625 22012657.082 12836018.529 10 0 60884 24300.00000 0 1532316.306 23430971.637 10024526.210 10 0 60884 25200.00000 0 1614215.190 24494006.635 7018828.823 10 0 60884 26100.00000 0 1786072.242 25170560.017 3877144.026 10 0 60884 27000.00000 0 1993269.944 25442117.308 660332.337 10 0 60884 27900.00000 0 2179102.624 25303575.934 -2569274.045 10 0 60884 28800.00000 0 2287407.550 24763429.124 -5749072.266 10 0 60884 29700.00000 0 2265176.885 23843401.330 -8817396.845 10 0 60884 30600.00000 0 2065040.154 22577549.807 -11714711.607 10 0 60884 31500.00000 0 1647512.085 21010869.229 -14384762.555 10 0 60884 32400.00000 0 982910.260 19197456.951 -16775669.410 10 0 60884 33300.00000 0 52860.623 17198314.830 -18840934.669 10 0 60884 34200.00000 0 -1148674.031 15078878.802 -20540350.498 10 0 60884 35100.00000 0 -2614887.671 12906378.805 -21840785.745 10 0 60884 36000.00000 0 -4326170.109 10747138.818 -22716837.542 10 0 60884 36900.00000 0 -6250692.097 8663929.402 -23151334.482 10 0 60884 37800.00000 0 -8345514.143 6713483.113 -23135681.114 10 0 60884 38700.00000 0 -10558174.773 4944276.409 -22670036.394 10 0 60884 39600.00000 0 -12828693.549 3394670.805 -21763321.883 10 0 60884 40500.00000 0 -15091906.576 2091491.031 -20433058.609 10 0 60884 41400.00000 0 -17280037.810 1049099.762 -18705034.892 10 0 60884 42300.00000 0 -19325399.068 269007.682 -16612810.732 10 0 60884 43200.00000 0 -21163105.729 -259964.985 -14197067.702 10 0 60884 44100.00000 0 -22733693.928 -560982.705 -11504816.544 10 0 60884 45000.00000 0 -23985528.928 -667975.106 -8588477.871 10 0 60884 45900.00000 0 -24876902.604 -623956.151 -5504854.095 10 0 60884 46800.00000 0 -25377731.033 -478954.424 -2314013.227 10 0 60884 47700.00000 0 -25470780.323 -287643.648 921892.587 10 0 60884 48600.00000 0 -25152368.689 -106775.516 4139849.596 10 0 60884 49500.00000 0 -24432515.421 7474.646 7277220.848 10 0 60884 50400.00000 0 -23334530.982 2135.306 10272974.947 10 0 60884 51300.00000 0 -21894066.341 -170073.528 13068880.145 10 0 60884 52200.00000 0 -20157662.687 -548498.624 15610639.703 10 0 60884 53100.00000 0 -18180863.718 -1162653.436 17848946.001 10 0 60884 54000.00000 0 -16025970.893 -2030740.228 19740433.000 10 0 60884 54900.00000 0 -13759536.604 -3158656.733 21248509.087 10 0 60884 55800.00000 0 -11449700.712 -4539529.009 22344055.059 10 0 60884 56700.00000 0 -9163481.697 -6153789.829 23005974.950 10 0 60884 57600.00000 0 -6964134.908 -7969799.096 23221590.404 10 0 60884 58500.00000 0 -4908686.948 -9944980.224 22986872.354 10 0 60884 59400.00000 0 -3045747.346 -12027425.135 22306506.766 10 0 60884 60300.00000 0 -1413686.701 -14157901.334 21193794.188 10 0 60884 61200.00000 0 -39255.117 -16272178.034 19670385.710 10 0 60884 62100.00000 0 1063303.640 -18303575.350 17765860.738 10 0 60884 63000.00000 0 1892607.345 -20185631.436 15517154.669 10 0 60884 63900.00000 0 2459946.762 -21854777.540 12967847.160 10 0 60884 64800.00000 0 2788562.647 -23252910.584 10167324.147 10 0 60884 65700.00000 0 2912419.615 -24329756.898 7169828.994 10 0 60884 66600.00000 0 2874528.958 -25044929.120 4033420.364 10 0 60884 67500.00000 0 2724891.218 -25369590.776 818856.152 10 0 60884 68400.00000 0 2518145.146 -25287659.013 -2411575.655 10 0 60884 69300.00000 0 2311022.041 -24796494.948 -5595257.065 10 0 60884 70200.00000 0 2159712.726 -23907052.210 -8670448.344 10 0 60884 71100.00000 0 2117258.225 -22643476.700 -11577481.314 10 0 60884 72000.00000 0 2231074.444 -21042173.349 -14259914.716 10 0 60884 72900.00000 0 2540715.771 -19150377.900 -16665629.307 10 0 60884 73800.00000 0 3075972.678 -17024292.330 -18747841.483 10 0 60884 74700.00000 0 3855384.641 -14726860.810 -20466015.645 10 0 60884 75600.00000 0 4885232.465 -12325278.134 -21786657.476 10 0 60884 76500.00000 0 6159054.172 -9888333.767 -22683972.529 10 0 60884 77400.00000 0 7657706.760 -7483701.713 -23140376.926 10 0 60884 78300.00000 0 9349973.328 -5175288.712 -23146849.810 10 0 60884 79200.00000 0 11193692.157 -3020751.087 -22703120.035 10 0 60884 80100.00000 0 13137362.288 -1069283.668 -21817682.710 10 0 60884 81000.00000 0 15122159.901 640226.925 -20507644.381 10 0 60884 81900.00000 0 17084282.203 2080607.567 -18798398.969 10 0 60884 82800.00000 0 18957521.225 3237303.652 -16723139.915 10 0 60884 83700.00000 0 20675959.838 4108746.214 -14322217.318 10 0 60884 84600.00000 0 22176676.544 4706166.104 -11642352.136 10 0 60884 85500.00000 0 23402344.846 5052863.746 -8735722.654 10 0 60885 0.00000 0 24303616.912 5182966.246 -5658941.558 10 0 60885 900.00000 0 24841190.779 5139725.625 -2471942.498 10 0 60885 1800.00000 0 24987471.882 4973431.572 763197.023 10 0 60885 2700.00000 0 24727759.931 4739029.035 3983477.771 10 0 60885 3600.00000 0 24060909.676 4493543.119 7126216.609 10 0 60885 4500.00000 0 22999438.178 4293422.248 10130276.256 10 0 60885 5400.00000 0 21569074.522 4191913.652 12937261.582 10 0 60885 6300.00000 0 19807771.668 4236583.540 15492658.343 10 0 60885 7200.00000 0 17764222.903 4467087.730 17746891.743 10 0 60885 8100.00000 0 15495946.183 4913287.390 19656284.334 10 0 60885 9000.00000 0 13067017.445 5593789.453 21183895.114 10 0 60885 9900.00000 0 10545548.258 6514972.981 22300224.455 10 0 60885 10800.00000 0 8001013.286 7670541.998 22983772.398 10 0 60885 11700.00000 0 5501538.574 9041623.136 23221440.899 10 0 60885 12600.00000 0 3111262.747 10597403.608 23008773.571 10 0 60885 13500.00000 0 887879.487 12296282.631 22350029.620 10 0 60885 14400.00000 0 -1119538.250 14087488.294 21258091.505 10 0 60885 15300.00000 0 -2872343.849 15913092.658 19754208.838 10 0 60885 16200.00000 0 -4343679.476 17710341.679 17867583.776 10 0 60885 17100.00000 0 -5519340.768 19414203.549 15634805.865 10 0 60885 18000.00000 0 -6398109.608 20960030.095 13099146.909 10 0 60885 18900.00000 0 -6991542.775 22286221.077 10309728.875 10 0 60885 19800.00000 0 -7323226.569 23336781.029 7320580.134 10 0 60885 20700.00000 0 -7427529.596 24063662.384 4189597.497 10 0 60885 21600.00000 0 -7347906.568 24428797.344 977433.307 10 0 60885 22500.00000 0 -7134824.707 24405733.489 -2253671.593 10 0 60885 23400.00000 0 -6843400.050 23980804.399 -5441086.975 10 0 60885 24300.00000 0 -6530843.202 23153785.656 -8523001.631 10 0 60885 25200.00000 0 -6253822.120 21938007.849 -11439617.997 10 0 60885 26100.00000 0 -6065853.241 20359920.755 -14134309.937 10 0 60885 27000.00000 0 -6014831.172 18458125.636 -16554721.367 10 0 60885 27900.00000 0 -6140801.629 16281914.762 -18653784.424 10 0 60885 28800.00000 0 -6474072.266 13889377.839 -20390637.294 10 0 60885 29700.00000 0 -7033742.047 11345153.134 -21731423.796 10 0 60885 30600.00000 0 -7826712.488 8717915.932 -22649958.933 10 0 60885 31500.00000 0 -8847223.954 6077708.131 -23128247.132 10 0 60885 32400.00000 0 -10076938.313 3493219.465 -23156842.633 10 0 60885 33300.00000 0 -11485566.314 1029133.112 -22735044.381 10 0 60885 34200.00000 0 -13032015.131 -1256354.034 -21870920.885 10 0 60885 35100.00000 0 -14666009.447 -3313733.200 -20581163.688 10 0 60885 36000.00000 0 -16330119.325 -5104015.915 -18890771.412 10 0 60885 36900.00000 0 -17962110.494 -6600120.013 -16832569.671 10 0 60885 37800.00000 0 -19497518.656 -7787751.597 -14446575.481 10 0 60885 38700.00000 0 -20872339.541 -8665746.361 -11779218.108 10 0 60885 39600.00000 0 -22025720.951 -9245856.477 -8882431.386 10 0 60885 40500.00000 0 -22902542.576 -9551992.848 -5812635.425 10 0 60885 41400.00000 0 -23455773.835 -9618955.907 -2629628.159 10 0 60885 42300.00000 0 -23648509.170 -9490709.982 604590.688 10 0 60885 43200.00000 0 -23455594.103 -9218275.946 3827039.089 10 0 60885 44100.00000 0 -22864772.758 -8857333.162 6974990.538 10 0 60885 45000.00000 0 -21877308.172 -8465634.049 9987204.745 10 0 60885 45900.00000 0 -20508049.307 -8100342.411 12805126.070 10 0 60885 46800.00000 0 -18784942.269 -7815409.598 15374025.565 10 0 60885 47700.00000 0 -16748006.964 -7659100.461 17644063.919 10 0 60885 48600.00000 0 -14447822.938 -7671774.241 19571254.672 10 0 60885 49500.00000 0 -11943588.511 -7884014.141 21118309.499 10 0 60885 50400.00000 0 -9300834.945 -8315184.171 22255350.019 10 0 60885 51300.00000 0 -6588891.255 -8972473.444 22960473.535 10 0 60885 52200.00000 0 -3878205.061 -9850467.409 23220163.119 10 0 60885 53100.00000 0 -1237630.310 -10931263.326 23029535.472 10 0 60885 54000.00000 0 1268206.574 -12185124.609 22392423.055 10 0 60885 54900.00000 0 3581354.283 -13571646.323 21321289.912 10 0 60885 55800.00000 0 5652698.127 -15041383.094 19836983.534 10 0 60885 56700.00000 0 7443747.736 -16537871.646 17968327.881 10 0 60885 57600.00000 0 8927978.701 -17999963.993 15751565.397 10 0 60885 58500.00000 0 10091674.276 -19364374.500 13229658.473 10 0 60885 59400.00000 0 10934233.828 -20568335.127 10451463.232 10 0 60885 60300.00000 0 11467936.610 -21552248.600 7470790.871 10 0 60885 61200.00000 0 11717171.845 -22262229.103 4345373.892 10 0 60885 62100.00000 0 11717168.135 -22652424.486 1135756.407 10 0 60885 63000.00000 0 11512275.943 -22687022.843 -2095870.728 10 0 60885 63900.00000 0 11153875.498 -22341859.046 -5286867.980 10 0 60885 64800.00000 0 10697998.162 -21605553.328 -8375355.653 10 0 60885 65700.00000 0 10202761.311 -20480133.205 -11301409.740 10 0 60885 66600.00000 0 9725724.787 -18981111.460 -14008222.114 10 0 60885 67500.00000 0 9321280.346 -17137015.470 -16443202.611 10 0 60885 68400.00000 0 9038184.356 -14988385.951 -18559001.676 10 0 60885 69300.00000 0 8917338.170 -12586285.376 -20314433.608 10 0 60885 70200.00000 0 8989910.356 -9990376.738 -21675282.355 10 0 60885 71100.00000 0 9275880.842 -7266651.313 -22614973.997 10 0 60885 72000.00000 0 9783069.436 -4484898.879 -23115102.479 10 0 60885 72900.00000 0 10506691.027 -1716024.689 -23165797.923 10 0 60885 73800.00000 0 11429457.654 970675.890 -22765929.734 10 0 60885 74700.00000 0 12522224.748 3510172.092 -21923139.795 10 0 60885 75600.00000 0 13745155.730 5844171.585 -20653704.249 10 0 60885 76500.00000 0 15049357.284 7923310.417 -18982225.662 10 0 60885 77400.00000 0 16378917.297 9708967.696 -16941160.699 10 0 60885 78300.00000 0 17673260.205 11174629.230 -14570191.825 10 0 60885 79200.00000 0 18869720.554 12306743.243 -11915454.767 10 0 60885 80100.00000 0 19906225.832 13105032.534 -9028636.665 10 0 60885 81000.00000 0 20723974.706 13582250.771 -5965962.737 10 0 60885 81900.00000 0 21269996.491 13763394.021 -2787091.733 10 0 60885 82800.00000 0 21499482.565 13684402.158 446057.296 10 0 60885 83700.00000 0 21377790.231 13390406.604 3670522.846 10 0 60885 84600.00000 0 20882033.418 12933600.257 6823538.378 10 0 60885 85500.00000 0 20002192.407 12370821.538 9843763.853 10 0 60886 0.00000 0 18741695.565 11760956.584 12672485.983 10 0 60886 900.00000 0 17117447.843 11162270.661 15254764.512 10 0 60886 1800.00000 0 15159306.915 10629783.603 17540497.942 10 0 60886 2700.00000 0 12909027.233 10212799.754 19485393.100 10 0 60886 3600.00000 0 10418718.358 9952697.661 21051816.304 10 0 60886 4500.00000 0 7748881.966 9881072.119 22209512.027 10 0 60886 5400.00000 0 4966109.734 10018306.176 22936176.053 10 0 60886 6300.00000 0 2140537.944 10372632.269 23217873.375 10 0 60886 7200.00000 0 -656835.832 10939720.888 23049294.124 10 0 60886 8100.00000 0 -3356863.442 11702813.114 22433843.871 10 0 60886 9000.00000 0 -5894873.073 12633390.723 21383567.596 10 0 60886 9900.00000 0 -8213105.044 13692355.317 19918909.513 10 0 60886 10800.00000 0 -10262857.235 14831666.975 18068313.757 10 0 60886 11700.00000 0 -12006253.065 15996374.038 15867673.634 10 0 60886 12600.00000 0 -13417560.411 17126949.467 13359639.744 10 0 60886 13500.00000 0 -14484008.337 18161836.589 10592799.754 10 0 60886 14400.00000 0 -15206069.105 19040098.221 7620744.921 10 0 60886 15300.00000 0 -15597194.858 19704058.777 4501040.579 10 0 60886 16200.00000 0 -15683020.863 20101828.961 1294119.735 10 0 60886 17100.00000 0 -15500069.217 20189607.297 -1937879.619 10 0 60886 18000.00000 0 -15094007.664 19933661.720 -5132311.477 10 0 60886 18900.00000 0 -14517536.738 19311907.525 -8227230.393 10 0 60886 19800.00000 0 -13827993.969 18315014.521 -11162588.549 10 0 60886 20700.00000 0 -13084775.852 16946995.720 -13881398.259 10 0 60886 21600.00000 0 -12346686.021 15225251.333 -16330837.482 10 0 60886 22500.00000 0 -11669321.250 13180064.484 -18463276.906 10 0 60886 23400.00000 0 -11102605.536 10853567.891 -20237208.568 10 0 60886 24300.00000 0 -10688576.418 8298222.805 -21618057.869 10 0 60886 25200.00000 0 -10459517.264 5574871.877 -22578862.982 10 0 60886 26100.00000 0 -10436514.939 2750445.543 -23100808.073 10 0 60886 27000.00000 0 -10628504.505 -104583.927 -23173599.550 10 0 60886 27900.00000 0 -11031842.277 -2918895.812 -22795677.356 10 0 60886 28800.00000 0 -11630426.391 -5623050.391 -21974256.496 10 0 60886 29700.00000 0 -12396360.975 -8152141.303 -20725197.115 10 0 60886 30600.00000 0 -13291136.986 -10448260.550 -19072704.781 10 0 60886 31500.00000 0 -14267280.782 -12462673.356 -17048865.951 10 0 60886 32400.00000 0 -15270401.370 -14157612.028 -14693026.987 10 0 60886 33300.00000 0 -16241550.050 -15507613.771 -12051028.263 10 0 60886 34200.00000 0 -17119792.534 -16500346.586 -9174308.241 10 0 60886 35100.00000 0 -17844884.171 -17136888.939 -6118895.090 10 0 60886 36000.00000 0 -18359934.060 -17431452.080 -2944306.083 10 0 60886 36900.00000 0 -18613944.340 -17410557.877 287622.784 10 0 60886 37800.00000 0 -18564115.830 -17111708.125 3513953.015 10 0 60886 38700.00000 0 -18177821.462 -16581603.246 6671880.643 10 0 60886 39600.00000 0 -17434163.232 -15873987.463 9699968.561 10 0 60886 40500.00000 0 -16325046.159 -15047213.235 12539349.051 10 0 60886 41400.00000 0 -14855723.696 -14161629.533 15134872.228 10 0 60886 42300.00000 0 -13044791.603 -13276905.604 17436177.541 10 0 60886 43200.00000 0 -10923630.809 -12449404.024 19398667.513 10 0 60886 44100.00000 0 -8535322.933 -11729714.196 20984365.242 10 0 60886 45000.00000 0 -5933084.230 -11160450.008 22162639.857 10 0 60886 45900.00000 0 -3178283.563 -10774403.672 22910787.041 10 0 60886 46800.00000 0 -338126.920 -10593132.321 23214454.735 10 0 60886 47700.00000 0 2516895.538 -10626035.468 23067907.133 10 0 60886 48600.00000 0 5315694.628 -10869960.749 22474123.183 10 0 60886 49500.00000 0 7989289.198 -11309353.265 21444728.717 10 0 60886 50400.00000 0 10473424.193 -11916941.338 19999764.261 10 0 60886 51300.00000 0 12710992.849 -12654929.287 18167293.403 10 0 60886 52200.00000 0 14654164.286 -13476646.988 15982859.258 10 0 60886 53100.00000 0 16266129.899 -14328587.136 13488799.234 10 0 60886 54000.00000 0 17522397.610 -15152745.096 10733430.780 10 0 60886 54900.00000 0 18411581.565 -15889163.697 7770123.062 10 0 60886 55800.00000 0 18935655.504 -16478576.663 4656271.749 10 0 60886 56700.00000 0 19109660.095 -16865040.113 1452195.919 10 0 60886 57600.00000 0 18960877.061 -16998441.828 -1780022.349 10 0 60886 58500.00000 0 18527504.953 -16836782.739 -4977733.772 10 0 60886 59400.00000 0 17856892.193 -16348134.397 -8078930.388 10 0 60886 60300.00000 0 17003401.438 -15512189.328 -11023443.741 10 0 60886 61200.00000 0 16025994.815 -14321338.003 -13754109.642 10 0 60886 62100.00000 0 14985641.302 -12781225.713 -16217877.031 10 0 60886 63000.00000 0 13942655.099 -10910764.167 -18366839.457 10 0 60886 63900.00000 0 12954076.841 -8741595.386 -20159169.027 10 0 60886 64800.00000 0 12071207.853 -6317028.200 -21559934.591 10 0 60886 65700.00000 0 11337401.338 -3690489.723 -22541788.025 10 0 60886 66600.00000 0 10786203.829 -923554.511 -23085504.926 10 0 60886 67500.00000 0 10439925.604 1916368.156 -23180368.758 10 0 60886 68400.00000 0 10308700.912 4758593.979 -22824390.350 10 0 60886 69300.00000 0 10390078.375 7531864.742 -22024357.761 10 0 60886 70200.00000 0 10669159.621 10167079.064 -20795714.673 10 0 60886 71100.00000 0 11119281.080 12599939.425 -19162268.817 10 0 60886 72000.00000 0 11703210.799 14773405.117 -17155735.244 10 0 60886 72900.00000 0 12374810.163 16639848.653 -14815122.641 10 0 60886 73800.00000 0 13081090.348 18162825.311 -12185974.128 10 0 60886 74700.00000 0 13764576.340 19318381.624 -9319477.204 10 0 60886 75600.00000 0 14365877.772 20095847.987 -6271460.371 10 0 60886 76500.00000 0 14826356.881 20498082.489 -3101296.536 10 0 60886 77400.00000 0 15090779.270 20541156.334 129264.491 10 0 60886 78300.00000 0 15109833.942 20253495.254 3357310.505 10 0 60886 79200.00000 0 14842414.688 19674514.586 6520003.395 10 0 60886 80100.00000 0 14257565.063 18852807.218 9555812.217 10 0 60886 81000.00000 0 13336003.897 17843962.660 12405717.660 10 0 60886 81900.00000 0 12071166.325 16708110.940 15014363.580 10 0 60886 82800.00000 0 10469716.131 15507296.383 17331132.704 10 0 60886 83700.00000 0 8551507.876 14302793.066 19311125.548 10 0 60886 84600.00000 0 6349000.536 13152475.525 20916023.959 10 0 60886 85500.00000 0 3906147.451 12108355.393 22114823.345 10 0 60887 0.00000 0 1276809.378 11214386.995 22884420.481 10 0 60887 900.00000 0 -1477244.628 10504632.578 23210047.209 10 0 60887 1800.00000 0 -4288662.010 10001863.937 23085542.059 10 0 60887 2700.00000 0 -7087065.833 9716655.917 22513457.219 10 0 60887 3600.00000 0 -9801739.481 9647009.420 21504998.721 10 0 60887 4500.00000 0 -12364328.130 9778517.810 20079802.231 10 0 60887 5400.00000 0 -14711446.193 10085068.650 18265549.109 10 0 60887 6300.00000 0 -16787084.167 10530050.601 16097430.151 10 0 60887 7200.00000 0 -18544716.562 11068014.452 13617467.082 10 0 60887 8100.00000 0 -19949024.858 11646718.523 10873704.362 10 0 60887 9000.00000 0 -20977165.160 12209472.787 7919286.138 10 0 60887 9900.00000 0 -21619528.823 12697683.564 4811435.405 10 0 60887 10800.00000 0 -21879965.121 13053492.210 1610354.303 10 0 60887 11700.00000 0 -21775457.173 13222397.083 -1621933.961 10 0 60887 12600.00000 0 -21335264.905 13155748.528 -4822779.701 10 0 60887 13500.00000 0 -20599570.945 12813011.632 -7930115.214 10 0 60887 14400.00000 0 -19617686.049 12163700.950 -10883654.048 10 0 60887 15300.00000 0 -18445889.033 11188904.805 -13626057.970 10 0 60887 16200.00000 0 -17144991.568 9882333.745 -16104049.140 10 0 60887 17100.00000 0 -15777729.703 8250847.380 -18269445.908 10 0 60887 18000.00000 0 -14406091.410 6314435.540 -20080102.054 10 0 60887 18900.00000 0 -13088692.167 4105652.378 -21500731.097 10 0 60887 19800.00000 0 -11878308.723 1668524.840 -22503599.446 10 0 60887 20700.00000 0 -10819674.721 -943021.035 -23069074.560 10 0 60887 21600.00000 0 -9947630.981 -3667152.311 -23186017.001 10 0 60887 22500.00000 0 -9285708.504 -6436458.515 -22852008.168 10 0 60887 23400.00000 0 -8845204.229 -9180522.404 -22073408.497 10 0 60887 24300.00000 0 -8624788.886 -11828626.000 -20865244.223 10 0 60887 25200.00000 0 -8610663.943 -14312479.644 -19250923.957 10 0 60887 26100.00000 0 -8777261.372 -16568860.447 -17261789.815 10 0 60887 27000.00000 0 -9088456.886 -18542049.798 -14936511.070 10 0 60887 27900.00000 0 -9499245.345 -20185967.882 -12320331.693 10 0 60887 28800.00000 0 -9957807.121 -21465915.456 -9464186.243 10 0 60887 29700.00000 0 -10407877.239 -22359849.614 -6423701.529 10 0 60887 30600.00000 0 -10791315.992 -22859140.017 -3258104.026 10 0 60887 31500.00000 0 -11050770.793 -22968774.013 -29055.261 10 0 60887 32400.00000 0 -11132315.074 -22707002.786 3200560.965 10 0 60887 33300.00000 0 -10987951.009 -22104444.530 6367874.591 10 0 60887 34200.00000 0 -10577868.757 -21202683.861 9411263.095 10 0 60887 35100.00000 0 -9872365.539 -20052428.107 12271557.858 10 0 60887 36000.00000 0 -8853342.583 -18711299.793 14893198.792 10 0 60887 36900.00000 0 -7515316.283 -17241359.875 17225314.170 10 0 60887 37800.00000 0 -5865900.785 -15706467.195 19222704.659 10 0 60887 38700.00000 0 -3925741.679 -14169585.951 20846712.835 10 0 60887 39600.00000 0 -1727903.748 -12690154.533 22065962.106 10 0 60887 40500.00000 0 683261.513 -11321625.790 22856951.872 10 0 60887 41400.00000 0 3253721.319 -10109280.905 23204498.716 10 0 60887 42300.00000 0 5921773.223 -9088407.144 23102016.468 10 0 60887 43200.00000 0 8620379.743 -8282914.036 22551631.021 10 0 60887 44100.00000 0 11279729.759 -7704444.114 21564128.752 10 0 60887 45000.00000 0 13829921.358 -7352013.626 20158740.317 10 0 60887 45900.00000 0 16203656.053 -7212196.659 18362764.392 10 0 60887 46800.00000 0 18338834.004 -7259843.667 16211038.677 10 0 60887 47700.00000 0 20180943.864 -7459303.384 13745268.102 10 0 60887 48600.00000 0 21685149.359 -7766096.326 11013222.655 10 0 60887 49500.00000 0 22817987.025 -8128969.458 8067819.583 10 0 60887 50400.00000 0 23558605.347 -8492245.749 4966106.934 10 0 60887 51300.00000 0 23899494.374 -8798370.045 1768167.266 10 0 60887 52200.00000 0 23846675.747 -8990544.331 -1464038.039 10 0 60887 53100.00000 0 23419345.320 -9015341.569 -4667862.058 10 0 60887 54000.00000 0 22648983.246 -8825187.912 -7781180.617 10 0 60887 54900.00000 0 21577968.455 -8380608.352 -10743592.517 10 0 60887 55800.00000 0 20257755.175 -7652140.458 -13497588.631 10 0 60887 56700.00000 0 18746687.387 -6621834.535 -15989667.284 10 0 60887 57600.00000 0 17107542.330 -5284275.566 -18171374.343 10 0 60887 58500.00000 0 15404905.574 -3647082.158 -20000247.690 10 0 60887 59400.00000 0 13702487.290 -1730859.457 -21440647.639 10 0 60887 60300.00000 0 12060491.936 431394.280 -22464456.917 10 0 60887 61200.00000 0 10533151.473 2795404.900 -23051636.261 10 0 60887 62100.00000 0 9166525.487 5307218.838 -23190624.367 10 0 60887 63000.00000 0 7996660.570 7905214.201 -22878573.807 10 0 60887 63900.00000 0 7048186.362 10522444.131 -22121417.600 10 0 60887 64800.00000 0 6333407.435 13089215.907 -20933764.292 10 0 60887 65700.00000 0 5851929.386 15535799.019 -19338622.727 10 0 60887 66600.00000 0 5590835.007 17795149.402 -17366961.007 10 0 60887 67500.00000 0 5525403.075 19805536.095 -15057107.524 10 0 60887 68400.00000 0 5620339.211 21512960.107 -12454005.234 10 0 60887 69300.00000 0 5831466.261 22873263.654 -9608333.488 10 0 60887 70200.00000 0 6107801.955 23853840.993 -6575514.782 10 0 60887 71100.00000 0 6393934.744 24434878.542 -3414626.222 10 0 60887 72000.00000 0 6632595.796 24610071.988 -187237.869 10 0 60887 72900.00000 0 6767316.685 24386790.683 3043798.230 10 0 60887 73800.00000 0 6745058.544 23785682.949 6215583.467 10 0 60887 74700.00000 0 6518699.850 22839740.031 9266407.084 10 0 60887 75600.00000 0 6049276.214 21592859.448 12136954.385 10 0 60887 76500.00000 0 5307876.416 20097969.678 14771464.355 10 0 60887 77400.00000 0 4277113.921 18414796.598 17118813.576 10 0 60887 78300.00000 0 2952111.459 16607366.855 19133505.326 10 0 60887 79200.00000 0 1340957.111 14741353.939 20776545.042 10 0 60887 80100.00000 0 -535387.195 12881378.724 22016185.914 10 0 60887 81000.00000 0 -2643720.794 11088377.438 22828531.299 10 0 60887 81900.00000 0 -4939756.425 9417146.519 23197983.613 10 0 60887 82800.00000 0 -7369741.357 7914165.788 23117532.377 10 0 60887 83700.00000 0 -9872480.299 6615789.251 22588877.156 10 0 60887 84600.00000 0 -12381676.538 5546877.200 21622384.108 10 0 60887 85500.00000 0 -14828494.789 4719924.746 20236877.745 99